Regional Weather Roundup
Issued by NWS

Home | Current Version | Previous Version | Graphics & Text | Print | Product List | Glossary On
Versions: 1 2 3 4 5 6 7 8 9 10 11 12 13 14 15 16 17 18 19 20 21 22 23 24 25 26 27 28 29 30 31 32 33 34 35 36 37 38 39 40 41 42 43 44 45 46 47 48 49 50
159
ASUS45 KBOU 270507
RWRCO

WEATHER ROUNDUP FOR COLORADO
NATIONAL WEATHER SERVICE DENVER/BOULDER CO
1100 PM MDT TUE JUL 26 2016

NOTE: "FAIR" INDICATES FEW OR NO CLOUDS BELOW 12000 FEET WITH NO
SIGNIFICANT WEATHER AND/OR OBSTRUCTIONS TO VISIBILITY.

COZ001>005-013-030-031-270600-
...NORTHWEST COLORADO...

CITY           SKY/WX    TMP DP  RH WIND       PRES   REMARKS
CRAIG          FAIR      63  45  51 E3        30.25R
HAYDEN         FAIR      61  39  44 E8        30.28S
MEEKER         FAIR      62  45  53 E6        30.26S
MOUNT WERNER   NOT AVBL
STEAMBOAT SPGS FAIR      59  40  49 CALM      30.31S
WALDEN         FAIR      50  36  57 SE7       30.43S
$$

COZ006>008-011-270600-
...WEST CENTRAL VALLEYS...

CITY           SKY/WX    TMP DP  RH WIND       PRES   REMARKS
GRAND JUNCTION FAIR      81  40  23 E12       30.11S
MONTROSE       FAIR      72  42  34 SE9       30.23R
EAGLE          FAIR      64  39  39 CALM      30.33R
RIFLE          FAIR      70  44  39 SE6       30.20R
DELTA          FAIR      78  39  24 CALM      30.16S
NUCLA          FAIR      77  37  24 CALM      30.25S
$$

COZ017>023-064>068-270600-
...SOUTHWEST COLORADO...

CITY           SKY/WX    TMP DP  RH WIND       PRES   REMARKS
DURANGO        FAIR      63  49  60 NE6       30.31R
CORTEZ         FAIR      67  45  45 S3        30.22R
PAGOSA SPRINGS FAIR      65  45  48 NW5       30.41R
TELLURIDE      FAIR      61  40  45 E6        30.51R
WOLF CREEK PAS CLOUDY    45  37  76 N22G29    30.75R
$$

COZ009-010-012-014-032>034-037-058>063-270600-
...CENTRAL COLORADO...

CITY           SKY/WX    TMP DP  RH WIND       PRES   REMARKS
ASPEN          FAIR      57  41  55 SW10      30.39F
BUENA VISTA    FAIR      57  37  46 W8        30.44S
COPPER MTN     FAIR      54  30  40 CALM      30.72F
BERTHOUD PASS  FAIR      45  32  61 N17       30.74S
COTTONWOOD PAS FAIR      61  36  39 W5        30.58S
GUNNISON       FAIR      61  39  44 N7        30.42R
KREMMLING      FAIR      54  41  62 CALM      30.41R
LEADVILLE      FAIR      48  32  53 SE3       30.56F
MONARCH PASS   FAIR      50  36  57 NE14      30.82S
SALIDA         FAIR      60  45  57 W5        30.47S
SUNLIGHT       FAIR      55  36  47 MISG      30.65R
WILKERSON PASS FAIR      52  32  46 W5        30.69S
$$

COZ069>075-270600-
...SAN LUIS VALLEY/SANGRE DE CRISTO MOUNTAINS...

CITY           SKY/WX    TMP DP  RH WIND       PRES   REMARKS
ALAMOSA        CLOUDY    65  46  50 N5        30.38R
LA VETA PASS   CLOUDY    57  37  47 SE3       30.58S
SAGUACHE       FAIR      64  43  45 NW13      30.40F
$$

COZ035-036-038>040-270600-
...NORTHERN COLORADO FRONT RANGE...

CITY           SKY/WX    TMP DP  RH WIND       PRES   REMARKS
DENVER INTL AP FAIR      66  42  41 SE10      30.15S
DMNS CITY PARK   N/A     73  41  31 SE6       30.14S
AURORA         MOCLDY    69  41  36 S10       30.18S
FRONT RANGE AP NOT AVBL
ERIE MUNI ARPT FAIR      69  39  34 CALM      30.13R
BOULDER MUN AP FAIR      79  36  21 W9        30.13S
CENTENNIAL     MOCLDY    73  37  27 S5        30.20R
BROOMFIELD     NOT AVBL
LONGMONT       FAIR      67  49  53 W3        30.13S
$$

COZ041-046-047-076>085-087-088-270600-
...PIKES PEAK/PALMER DIVIDE AND SOUTHERN FOOTHILLS...

CITY           SKY/WX    TMP DP  RH WIND       PRES   REMARKS
COLO. SPRINGS  MOCLDY    74  44  34 NW5       30.24S
A. F. ACADEMY  FAIR      62  43  50 N7        30.26F
SCHRIEVER AFB  NOT AVBL
ELLICOTT       FAIR     N/A N/A N/A SE12      30.24R
FALCON         FAIR      67  40  37 NW7       30.29F
FORT CARSON    MOCLDY    72  42  34 NE3       30.20R
LIMON          NOT AVBL
MONUMENT HILL  FAIR      63  41  45 W9        30.32S
TRINIDAD       NOT AVBL
$$

COZ042>045-048>051-090-091-270600-
...NORTHEAST COLORADO...

CITY           SKY/WX    TMP DP  RH WIND       PRES   REMARKS
GREELEY ARPT   FAIR      68  52  56 CALM      30.10F
AKRON          FAIR      68  53  58 SE10      30.11R
BURLINGTON     FAIR      68  57  68 SE14      30.11F
WRAY           FAIR      72  54  53 SW6       30.06R
STERLING       FAIR      70  52  52 SE8       30.07F
HOLYOKE        FAIR      64  57  77 W5        30.10R
FORT MORGAN    FAIR      66  53  61 S5        30.10S
$$

COZ086-089-092>099-270600-
...SOUTHEAST COLORADO...

CITY           SKY/WX    TMP DP  RH WIND       PRES   REMARKS
PUEBLO         FAIR      81  48  31 SW9       30.11S
LA JUNTA       FAIR      79  63  57 E20G29    30.10R
LAMAR          MOCLDY    73  58  59 NE29G40   30.13R
SPRINGFIELD      N/A     74  63  68 SE14      30.13R
$$




USA.gov is the U.S. government's official web portal to all federal, state and local government web resources and services.